Satellite-Ground Cal/Val Site Overpasses Predictions

Prediction of Satellite NPP Overpassing Cal/Val Site: Antarctic Dome C

Ground Cal/Val Site Location: Latitude: -75.10, Longitude: 123.35; Satellite-Ground Site NADIR distance within 100 km.

Table of predicted overpasses for the next 14.0 days since TLE Epoch: 11/16/2024
Interval Starting Time Ending Time Minimum Distance Time Minimum Distance (km)
1 11/16/2024 14:54:16 11/16/2024 14:54:45 11/16/2024 14:54:31 19.47
2 11/17/2024 14:35:34 11/17/2024 14:35:48 11/17/2024 14:35:41 87.56
3 11/18/2024 07:37:05 11/18/2024 07:37:32 11/18/2024 07:37:19 32.31
4 11/19/2024 07:18:19 11/19/2024 07:18:37 11/19/2024 07:18:28 78.15
5 11/21/2024 15:00:31 11/21/2024 15:00:55 11/21/2024 15:00:43 55.81
6 11/22/2024 14:41:39 11/22/2024 14:42:04 11/22/2024 14:41:52 53.33
7 11/23/2024 07:43:19 11/23/2024 07:43:41 11/23/2024 07:43:30 66.87
8 11/24/2024 07:24:26 11/24/2024 07:24:52 11/24/2024 07:24:39 41.34
9 11/26/2024 15:06:48 11/26/2024 15:06:58 11/26/2024 15:06:53 92.78
10 11/27/2024 14:47:48 11/27/2024 14:48:17 11/27/2024 14:48:02 18.41
